Location: �chenoz-la-M�line
(47.6009°N, 6.1354°E)
Time: 15:35:40
(UTC+00:00)

Meteor 1-21 Rocket - Pass Details

Date: 27 January 2021
Orbit: 834 x 906 km, 81.2° (Epoch: 04 March)

Event Time Altitude Azimuth Distance (km) Brightness Sun altitude
Exits shadow 04:18:04 42° 356° (N) 1,242 5.0 -28.6°
Maximum altitude 04:20:09 82° 78° (ENE) 899 4.2 -28.2°
Drops below altitude 10° 04:26:00 10° 167° (SSE) 2,560 6.8 -27.2°
Sets 04:28:28 0° 168° (SSE) 3,503 7.5 -26.8°
